Regional Weather Roundup
Issued by NWS Charleston, SC

Home | Current Version | Previous Version | Text Only | Print | Product List | Glossary On
Versions: 1 2 3 4 5 6 7 8 9 10 11 12 13 14 15 16 17 18 19 20 21 22 23 24 25 26 27 28 29 30 31 32 33 34 35 36 37 38 39 40 41 42 43 44 45 46 47 48 49 50
000
ASUS42 KCHS 300527
RWRCHS

REGIONAL WEATHER ROUNDUP
NATIONAL WEATHER SERVICE CHARLESTON SC
100 AM EDT THU MAR 30 2017

NOTE: "FAIR" INDICATES FEW OR NO CLOUDS BELOW 12,000 FEET WITH NO
SIGNIFICANT WEATHER AND/OR OBSTRUCTIONS TO VISIBILITY.

NOT ALL STATIONS ARE QUALITY CONTROLLED. USE DATA WITH CAUTION...
ESPECIALLY DEWPOINT OBSERVATIONS.

SCZ027-030-031-034>040-042>050-300600-
...SOUTHEAST SOUTH CAROLINA...

CITY           SKY/WX    TMP DP  RH WIND       PRES   REMARKS
N CHARLESTON   CLOUDY    68  62  81 E9        30.07S
WATERFRONT PRK   N/A     66  65  96 E6        30.05S
JOHNS ISLAND   MOCLDY    66  64  94 NE7       30.07S
PINOPOLIS        N/A     64  63  94 E5        29.99S
MONCKS CORNER  CLOUDY    64  59  82 E5        30.08S
SUMMERVILLE    MOCLDY    64  61  88 CALM      30.08S
BEAUFORT MCAS  CLOUDY    69  68  96 E8        30.05S
BEAUFORT ARPT  CLOUDY    66  64  94 E5        30.05S
HILTON HEAD IS FOG       64  64 100 NE5       30.06S VSB 1/2
WALTERBORO     CLOUDY    68  63  83 E8        30.07S
ALLENDALE      CLOUDY    66  63  88 SE7       30.04F

...SOUTHERN MIDLANDS AND PEE DEE...

CITY           SKY/WX    TMP DP  RH WIND       PRES   REMARKS
GEORGETOWN     FAIR      63  61  94 E7        30.10S
KINGSTREE      FAIR      59  55  88 E3        30.09S
ORANGEBURG     CLOUDY    66  61  84 SE7       30.07R
BARNWELL       FAIR      66  63  88 SE9       30.05S
AIKEN          FAIR      63  54  72 SE10      30.06S
MANNING        CLOUDY    63  57  82 CALM      30.08S
COLUMBIA       CLEAR     65  57  75 E9        30.05R
SUMTER         CLOUDY    62  56  78 SE9       30.06S
FLORENCE       CLEAR     59  54  83 SE6       30.10S
MYRTLE BEACH   CLEAR     62  58  86 E9        30.11F
N MYRTLE BEACH CLEAR     62  58  86 E10       30.11S

$$

GAZ063-065-086>088-099>101-113>116-118-119-134>141-150-300600-
...SOUTHEAST GEORGIA...

CITY           SKY/WX    TMP DP  RH WIND       PRES   REMARKS
SAVANNAH ARPT  CLEAR     65  61  87 SE6       30.04F
HUNTER AAF     CLEAR     64  64 100 CALM      30.02S
FORT STEWART   CLEAR     62  59  88 E3        30.01F
STATESBORO     CLEAR     66  61  84 SE3       30.03S
SYLVANIA       CLEAR    N/A N/A N/A SE5       30.04S
CLAXTON        FAIR     N/A N/A N/A CALM      30.02S

...CSRA...CENTRAL AND FAR SOUTHEAST GEORGIA...

CITY           SKY/WX    TMP DP  RH WIND       PRES   REMARKS
THOMSON        CLEAR     61  54  76 S3        30.05F
AUGUSTA-BUSH   CLEAR     60  56  86 CALM      30.01S
AUGUSTA-DANIEL CLEAR     71  50  47 E7        30.02F
SWAINSBORO     FAIR      68  59  73 SE5       30.01F
VIDALIA        CLEAR     72  63  73 SE7       30.01F
EASTMAN        FAIR      67  57  70 CALM      30.02S
HAZLEHURST     FAIR      73  67  83 S8        30.00S
ALMA           PTCLDY    70  63  78 SE5       30.01F
WAYCROSS       CLOUDY    70  69  98 E3        30.01F
JESUP          RAIN      68  63  83 SW6       30.03S
BAXLEY         MOCLDY    72  72 100 CALM      30.01S
BRUNSWICK      CLOUDY    68  66  94 CALM      30.03S
SAINT SIMONS   CLOUDY    70  65  84 S7        30.02S

$$

SCZ027-028-034-036>038-045-046-048>050-GAZ119-141-300600-
...LAKE AND SUPPLEMENTAL COASTAL OBSERVATIONS...

STATION/POSITION TIME  TEMP    WIND        PRES    WAVE   SWELL
                       AIR SEA DIR/SP/G            HT/PER HT/PER/DIR
                 (UTC) (F)     (DEG/KT/KT) (MB)    (FT/S) (FT/S/D)
WINYAH BAY       0445   63      70/  9     1019.0S
LAKE MURRAY      0430   68     100/  9/ 10 1016.9R
ACE BASIN NERRS  0445   66      50/  2     1018.0S
FORT PULASKI     0500   66 66  100/  4/  5 1017.5
SAPELO ISLAND    0500   68        CALM     1017.0

$$

ANZ835-935-AMZ111-154-330-350-352-354-370-450-454-472-300600-
...C-MAN AND BUOY OBSERVATIONS...

STATION/POSITION TIME  TEMP    WIND        PRES    WAVE   SWELL
                       AIR SEA DIR/SP/G            HT/PER HT/PER/DIR
                 (UTC) (F)     (DEG/KT/KT) (MB)    (FT/S) (FT/S/D)
BUOY 41004       0450   71 68   80/ 16/ 17 1017.2F   5/10   3/120/10
BUOY 41008       0450   65 64   60/  4/  4 1016.6R   2/10   2/100/10
FOLLY BEACH CMAN 0500   65      50/ 10/ 10 1018.5F
CAPERS NEARSHORE NOT AVBL
FRIPP NEARSHORE  0508   64 63   70/  8/ 10 1017.1F


STATION/POSITION TIME  TEMP    WIND        PRES    WAVE   SWELL
                       AIR SEA DIR/SP/G            HT/PER HT/PER/DIR
                 (UTC) (F)     (DEG/KT/KT) (MB)    (FT/S) (FT/S/D)
5E ST. MARYS GA  0500      69                N/A     2/11   2/120/11
FRYING PAN BUOY  0510   69 73   70/ 16/ 19 1019.4
BUOY 41025       0450   60 73   50/ 19/ 21 1020.3F   7/ 9   5/ 70/ 9
CAPE LOOKOUT NC  0500   60      50/ 18/ 20 1020.2S
BUOY 41002       0450   69 72   60/ 14/ 16 1018.3R   6/10   5/100/10
BUOY 41010       NOT AVBL
ST AUGUSTINE FL  0500   70 68  170/  5/  6 1017.4F


$$




USA.gov is the U.S. government's official web portal to all federal, state and local government web resources and services.